, AK

(GMT )
Golovin

Weather History for PAGL - January, 2014

Change the Weather History Date:

Thursday, January 30, 2014

  Actual Average Record
Temperature  
Mean Temperature 34 °F -  
Max Temperature 37 °F - - ()
Min Temperature 32 °F - - ()
Degree Days  
Heating Degree Days 30    
Moisture  
Dew Point 27 °F    
Average Humidity 76    
Maximum Humidity 81    
Minimum Humidity 65    
Precipitation  
Precipitation 0.00 in - - ()
Sea Level Pressure  
Sea Level Pressure 30.01 in    
Wind  
Wind Speed 16 mph (ESE)    
Max Wind Speed 21 mph    
Max Gust Speed 25 mph    
Visibility 10 miles    
Events      
Averages and records for this station are not official NWS values.
T = Trace of Precipitation, MM = Missing Value Source: NWS Daily Summary

Daily Weather History Graph

Daily Weather History Graph

Search for Another Location

Airport or City:

Trip Planner

Search our weather history database for the weather conditions in past years. The results will help you decide how hot, cold, wet, or windy it might be!

Date:

Astronomy

Jan. 30, 2014 Rise Set
Actual Time 10:40 AM AKST 5:31 PM AKST
Civil Twilight 9:41 AM AKST 6:30 PM AKST
Nautical Twilight 8:41 AM AKST 7:30 PM AKST
Astronomical Twilight 7:44 AM AKST 8:27 PM AKST
Moon 9:53 AM AKST (1/30) 6:28 PM AKST (1/30)
Length of Visible Light 8h 48m
Length of Day
6h 50m
Waning Crescent, 0% of the Moon is Illuminated
Jan 30
Waning Crescent
Jan 30
New
Feb 6
First Quarter
Feb 14
Full
Feb 22
Last Quarter

Hourly Weather History & Observations

Time (AKST) Temp. Windchill Dew Point Humidity Pressure Visibility Wind Dir Wind Speed Gust Speed Precip Events Conditions
12:16 AM 35.6 °F 25.9 °F 24.8 °F 65% 29.94 in 10.0 mi ESE 16.1 mph - N/A   Overcast
12:36 AM 33.8 °F 23.5 °F 24.8 °F 70% 29.95 in 10.0 mi ESE 16.1 mph - N/A   Overcast
12:56 AM 35.6 °F 25.2 °F 24.8 °F 65% 29.95 in 10.0 mi ESE 18.4 mph 23.0 mph N/A   Overcast
1:16 AM 33.8 °F 22.8 °F 24.8 °F 70% 29.96 in 10.0 mi ESE 18.4 mph - N/A   Mostly Cloudy
1:36 AM 33.8 °F 23.2 °F 24.8 °F 70% 29.96 in 10.0 mi ESE 17.3 mph - N/A   Partly Cloudy
1:56 AM 33.8 °F 23.2 °F 24.8 °F 70% 29.96 in 10.0 mi ESE 17.3 mph - N/A   Clear
2:16 AM 33.8 °F 22.8 °F 24.8 °F 70% 29.96 in 10.0 mi ESE 18.4 mph - N/A   Partly Cloudy
2:36 AM 33.8 °F 22.8 °F 26.6 °F 75% 29.97 in 10.0 mi ESE 18.4 mph - N/A   Mostly Cloudy
2:56 AM 33.8 °F 22.8 °F 26.6 °F 75% 29.97 in 10.0 mi ESE 18.4 mph - N/A   Overcast
3:16 AM 33.8 °F 22.8 °F 26.6 °F 75% 29.97 in 10.0 mi ESE 18.4 mph 23.0 mph N/A   Overcast
3:36 AM 33.8 °F 22.8 °F 24.8 °F 70% 29.97 in 10.0 mi East 18.4 mph - N/A   Overcast
3:56 AM 33.8 °F 22.2 °F 24.8 °F 70% 29.98 in 10.0 mi East 20.7 mph 25.3 mph N/A   Mostly Cloudy
4:16 AM 33.8 °F 22.5 °F 24.8 °F 70% 29.98 in 10.0 mi ESE 19.6 mph - N/A   Mostly Cloudy
4:36 AM 33.8 °F 22.5 °F 24.8 °F 70% 29.98 in 10.0 mi ESE 19.6 mph 25.3 mph N/A   Overcast
4:56 AM 33.8 °F 23.5 °F 24.8 °F 70% 29.99 in 10.0 mi ESE 16.1 mph - N/A   Overcast
5:16 AM 33.8 °F 23.2 °F 26.6 °F 75% 29.98 in 10.0 mi ESE 17.3 mph - N/A   Overcast
5:36 AM 33.8 °F 23.5 °F 24.8 °F 70% 29.98 in 10.0 mi ESE 16.1 mph - N/A   Overcast
5:56 AM 33.8 °F 23.5 °F 24.8 °F 70% 29.98 in 10.0 mi ESE 16.1 mph - N/A   Overcast
6:16 AM 32.0 °F 21.6 °F 24.8 °F 75% 29.98 in 10.0 mi East 15.0 mph 20.7 mph N/A   Partly Cloudy
6:36 AM 33.8 °F 23.5 °F 26.6 °F 75% 29.99 in 10.0 mi ESE 16.1 mph 23.0 mph N/A   Clear
6:56 AM 33.8 °F 23.9 °F 26.6 °F 75% 30.00 in 10.0 mi ESE 15.0 mph - N/A   Clear
7:16 AM 33.8 °F 24.3 °F 26.6 °F 75% 30.00 in 10.0 mi ESE 13.8 mph - N/A   Clear
7:36 AM 32.0 °F 21.6 °F 26.6 °F 80% 30.00 in 10.0 mi ESE 15.0 mph - N/A   Clear
7:56 AM 32.0 °F 23.0 °F 26.6 °F 80% 30.01 in 10.0 mi East 11.5 mph - N/A   Clear
8:16 AM 32.0 °F 22.1 °F 26.6 °F 80% 30.00 in 10.0 mi East 13.8 mph - N/A   Clear
8:36 AM 32.0 °F 20.8 °F 24.8 °F 75% 30.00 in 10.0 mi East 17.3 mph - N/A   Clear
8:56 AM 32.0 °F 21.6 °F 26.6 °F 80% 30.00 in 10.0 mi East 15.0 mph 20.7 mph N/A   Clear
9:16 AM 32.0 °F 21.2 °F 24.8 °F 75% 30.01 in 10.0 mi East 16.1 mph 20.7 mph N/A   Clear
9:36 AM 32.0 °F 20.8 °F 24.8 °F 75% 30.02 in 10.0 mi ESE 17.3 mph - N/A   Clear
9:56 AM 32.0 °F 22.5 °F 24.8 °F 75% 30.03 in 10.0 mi East 12.7 mph - N/A   Clear
10:16 AM 32.0 °F 22.5 °F 26.6 °F 80% 30.02 in 10.0 mi ESE 12.7 mph - N/A   Clear
10:36 AM 32.0 °F 22.1 °F 26.6 °F 80% 30.02 in 10.0 mi East 13.8 mph - N/A   Clear
10:56 AM 32.0 °F 23.0 °F 26.6 °F 80% 30.03 in 10.0 mi East 11.5 mph - N/A   Clear
11:16 AM 33.8 °F 24.8 °F 26.6 °F 75% 30.04 in 10.0 mi East 12.7 mph - N/A   Clear
11:36 AM 33.8 °F 24.8 °F 26.6 °F 75% 30.03 in 10.0 mi East 12.7 mph 16.1 mph N/A   Mostly Cloudy
11:56 AM 33.8 °F 25.3 °F 26.6 °F 75% 30.04 in 10.0 mi East 11.5 mph - N/A   Mostly Cloudy
12:16 PM 33.8 °F 27.0 °F 26.6 °F 75% 30.04 in 10.0 mi East 8.1 mph - N/A   Overcast
12:36 PM 33.8 °F 25.8 °F 28.4 °F 81% 30.04 in 10.0 mi East 10.4 mph - N/A   Overcast
12:56 PM 33.8 °F 24.8 °F 28.4 °F 81% 30.04 in 10.0 mi ESE 12.7 mph - N/A   Overcast
1:16 PM 33.8 °F 24.3 °F 28.4 °F 81% 30.04 in 10.0 mi ESE 13.8 mph - N/A   Overcast
1:36 PM 33.8 °F 25.3 °F 28.4 °F 81% 30.05 in 10.0 mi ESE 11.5 mph - N/A   Overcast
1:56 PM 35.6 °F 27.5 °F 28.4 °F 75% 30.05 in 10.0 mi ESE 11.5 mph - N/A   Overcast
2:16 PM 35.6 °F 25.9 °F 28.4 °F 75% 30.04 in 10.0 mi East 16.1 mph 20.7 mph N/A   Overcast
2:36 PM 35.6 °F 27.5 °F 28.4 °F 75% 30.03 in 10.0 mi East 11.5 mph - N/A   Overcast
2:56 PM 33.8 °F 23.5 °F 28.4 °F 81% 30.04 in 10.0 mi ESE 16.1 mph - N/A   Overcast
3:16 PM 35.6 °F 27.5 °F 28.4 °F 75% 30.04 in 10.0 mi SE 11.5 mph - N/A   Overcast
3:36 PM 35.6 °F 26.6 °F 28.4 °F 75% 30.03 in 10.0 mi ESE 13.8 mph - N/A   Overcast
3:56 PM 35.6 °F 27.5 °F 28.4 °F 75% 30.03 in 10.0 mi East 11.5 mph - N/A   Mostly Cloudy
4:16 PM 35.6 °F 26.6 °F 28.4 °F 75% 30.03 in 10.0 mi ESE 13.8 mph 19.6 mph N/A   Mostly Cloudy
4:36 PM 35.6 °F 26.2 °F 28.4 °F 75% 30.03 in 10.0 mi SE 15.0 mph - N/A   Partly Cloudy
4:56 PM 35.6 °F 27.1 °F 28.4 °F 75% 30.03 in 10.0 mi ESE 12.7 mph - N/A   Mostly Cloudy
5:16 PM 35.6 °F 27.1 °F 30.2 °F 81% 30.03 in 10.0 mi ESE 12.7 mph - N/A   Overcast
5:36 PM 35.6 °F 27.5 °F 28.4 °F 75% 30.03 in 10.0 mi ESE 11.5 mph - N/A   Overcast
5:56 PM 37.4 °F 28.5 °F 30.2 °F 75% 30.03 in 10.0 mi East 15.0 mph - N/A   Overcast
6:16 PM 37.4 °F 28.5 °F 30.2 °F 75% 30.02 in 10.0 mi East 15.0 mph 21.9 mph N/A   Overcast
6:36 PM 37.4 °F 28.9 °F 30.2 °F 75% 30.03 in 10.0 mi East 13.8 mph - N/A   Overcast
6:56 PM 37.4 °F 28.5 °F 30.2 °F 75% 30.02 in 10.0 mi ESE 15.0 mph - N/A   Overcast
7:16 PM 37.4 °F 27.5 °F 30.2 °F 75% 30.02 in 10.0 mi ESE 18.4 mph - N/A   Overcast
7:36 PM 37.4 °F 28.5 °F 30.2 °F 75% 30.02 in 10.0 mi ESE 15.0 mph - N/A   Mostly Cloudy
7:56 PM 37.4 °F 28.2 °F 30.2 °F 75% 30.03 in 10.0 mi ESE 16.1 mph 21.9 mph N/A   Mostly Cloudy
8:16 PM 35.6 °F 26.2 °F 30.2 °F 81% 30.02 in 10.0 mi ESE 15.0 mph - N/A   Overcast
8:36 PM 35.6 °F 26.2 °F 30.2 °F 81% 30.02 in 10.0 mi East 15.0 mph - N/A   Overcast
8:56 PM 35.6 °F 27.5 °F 30.2 °F 81% 30.02 in 10.0 mi East 11.5 mph - N/A   Overcast
9:16 PM 35.6 °F 25.9 °F 30.2 °F 81% 30.01 in 10.0 mi ESE 16.1 mph - N/A   Overcast
9:36 PM 35.6 °F 28.0 °F 30.2 °F 81% 30.01 in 10.0 mi SE 10.4 mph - N/A   Overcast
9:56 PM 35.6 °F 25.2 °F 30.2 °F 81% 30.00 in 10.0 mi ESE 18.4 mph 23.0 mph N/A   Overcast
10:16 PM 35.6 °F 25.5 °F 30.2 °F 81% 30.00 in 10.0 mi ESE 17.3 mph 20.7 mph N/A   Overcast
10:36 PM 35.6 °F 25.5 °F 30.2 °F 81% 30.00 in 10.0 mi ESE 17.3 mph - N/A   Overcast
10:56 PM 35.6 °F 25.9 °F 30.2 °F 81% 30.00 in 10.0 mi ESE 16.1 mph 21.9 mph N/A   Overcast
11:16 PM 35.6 °F 24.8 °F 30.2 °F 81% 30.00 in 10.0 mi ESE 19.6 mph - N/A   Overcast
11:36 PM 35.6 °F 25.5 °F 30.2 °F 81% 30.00 in 10.0 mi ESE 17.3 mph - N/A   Overcast
11:56 PM 35.6 °F 25.5 °F 28.4 °F 75% 30.01 in 10.0 mi ESE 17.3 mph - N/A   Overcast